Location: Gazon
(48.1318°N, 1.2708°W)
Time: 21:53:28
(UTC+00:00)

In-Cosmos 22 - Pass Details

Date: 18 September 2020
Orbit: 785 x 877 km, 81.2° (Epoch: 25 October)

Event Time Altitude Azimuth Distance (km) Brightness Sun altitude
Rises 19:07:58 0° 352° (N) 3,289 7.6 -10.3°
Reaches altitude 10° 19:10:26 10° 358° (N) 2,356 6.7 -10.7°
Maximum altitude 19:15:33 49° 73° (ENE) 1,018 4.3 -11.5°
Drops below altitude 10° 19:20:42 10° 148° (SSE) 2,364 6.1 -12.4°
Enters shadow 19:21:22 - 150° (SSE) 2,611 6.3 -12.5°
